Погода в Улановке

Россия / Кемеровская область (Кузбасс)     56°23′57″N   86°06′10″E
темп.,
°C
ветер,
м/с
пор.,
м/с
влажн.,
%
обл.,
%
осадки,
мм/ч
давл.,
гПа
погр.,
м
22 октября, пт
пт2201:00+6ю3970100 0.0 1011180
04:00+5ююв377499 0.0 1010124
07:00+5ю31370100 0.0 1010280
10:00+8ю5145899 0.0 1010502
13:00+9юз71468100 0.0 10121138
16:00+6юз61465100 0.0 10151371
19:00+4юз71461100 0.0 10171427
22:00+3юз71362100 0.0 10191252
23 октября, сб
сб2301:00+2юз6136654 0.0 10211081
04:00+2ююз6146466 0.0 1021847
07:00+2ююз6146189 0.0 1021972
10:00+3ююз71655100 0.0 10191443
13:00+4ююз81656100 0.0 10171375
16:00+4ююз81669100 0.0 10161205
19:00+2ююз81995100 1.2 10131157
22:00+2юз81995100 3.0 10121146
24 октября, вс
вс2401:00+4юз81696100 4.0 10111074
04:00+6юз71580100 0.0 10121089
07:00+6юз71581100 0.1 1012985
10:00+6юз71584100 0.4 10121029
13:00+7зюз61479100 0.5 10131523
16:00+8зюз71471100 0.3 10141604
19:00+6з513755 0.5 1018794
22:00+5зюз4108173 0.0 1020367
25 октября, пн
пн2501:00+4юз2787100 0.0 1020257
04:00+5ююз31095100 0.0 1020360
07:00+5ююз41293100 0.0 1018473
10:00+6ю61592100 0.9 1015682
13:00+10юз81775100 1.1 10121152
16:00+10юз81665100 0.0 10121105
19:00+9зюз7146451 0.0 10131107
22:00+7зюз613725 0.0 1016854
26 октября, вт
вт2601:00+5з498238 0.0 1018439
04:00+2з259271 0.0 1020124
07:00+1ююз1194100 0.0 102010
10:00+3ююв258889 0.0 1019174
13:00+7ю4768100 0.0 1016489
16:00+8ю4970100 0.0 1013476
19:00+6ю41180100 0.0 1011328
22:00+6ю41478100 0.0 1009426